Wind_Speed
2 2 2 2 3 3 3 4 5 5 6 6 7 8 7 8 8 7 7 7 6 6 6 6 6 6 6 5 5 4 4 4 3 3 3 3 4 4 3 4 3 3 3 3 3 4 3 3 3
2 2 2 2 2 3 3 4 5 5 6 6 7 8 7 7 8 8 8 8 7 7 7 7 7 7 6 6 6 5 5 4 4 4 5 4 5 5 5 5 4 4 5 5 5 4 4 5 4
3 3 2 3 2 3 3 4 4 4 5 6 7 7 7 8 8 8 9 8 8 8 9 8 8 8 7 7 7 7 6 5 5 6 6 6 5 6 7 6 6 6 6 6 6 5 5 6 6
3 3 3 3 3 4 4 4 4 4 5 6 6 6 7 7 7 8 8 9 9 9 9 9 9 8 8 8 8 8 7 7 7 7 7 7 7 7 8 8 8 8 8 7 7 7 7 7 7
3 3 3 4 3 4 4 5 5 4 4 5 5 6 6 6 7 7 8 8 8 8 9 9 9 9 9 9 9 9 9 9 8 8 8 9 8 8 9 9 9 9 9 9 8 9 9 9 9
4 3 4 4 3 4 4 4 5 5 5 5 5 5 6 6 6 7 7 8 8 8 8 9 9 10 10 10 10 10 10 10 10 9 9 9 8 9 9 9 10 10 10 9 10 10 10 10 10
3 4 4 4 4 5 5 5 5 5 5 5 6 6 6 6 6 7 7 8 8 8 9 9 9 10 11 11 11 12 12 11 10 10 10 10 9 9 9 9 10 10 10 10 10 10 10 10 11
4 4 4 5 5 5 5 5 5 5 5 6 6 6 6 6 7 7 7 8 8 8 9 9 9 10 11 12 11 11 12 12 11 10 10 10 10 10 10 10 10 10 10 10 10 10 11 11 11
3 4 4 5 5 5 5 5 5 5 5 5 5 5 5 6 7 7 8 8 8 8 9 9 10 10 11 11 11 12 12 12 12 11 11 11 10 10 10 10 10 9 10 10 10 11 10 10 11
3 4 4 5 5 5 5 5 5 5 6 6 5 5 5 6 7 8 8 8 8 8 9 10 10 11 11 12 12 11 11 11 11 11 11 11 11 11 10 9 9 9 10 10 10 11 11 11 11
4 4 5 5 5 6 5 6 6 6 6 6 5 5 5 5 6 7 8 8 9 9 9 10 10 10 11 11 11 11 11 11 11 11 11 11 11 10 10 10 11 11 10 10 11 11 11 11 11
5 5 5 5 5 6 6 6 6 7 7 6 6 6 6 6 7 7 8 8 9 9 9 9 10 10 10 10 10 10 11 11 11 11 11 10 10 10 11 11 12 12 11 11 11 11 11 11 11
5 5 6 6 6 7 7 7 7 7 7 7 7 7 7 8 8 8 8 8 9 9 9 9 9 9 9 9 9 9 9 10 10 10 10 10 10 10 10 10 11 11 11 10 10 11 11 11 10
5 6 7 7 8 8 8 8 8 8 8 8 8 8 8 9 8 8 9 9 9 8 8 9 8 8 8 8 8 8 9 10 10 10 10 10 10 10 10 9 10 10 11 11 11 11 11 11 11
6 7 8 8 9 9 10 10 9 9 9 9 9 9 9 9 9 9 9 9 9 9 8 9 9 8 8 8 7 8 9 9 9 10 11 11 11 11 11 11 11 11 11 12 12 12 11 12 12
7 8 8 8 8 9 9 9 9 9 10 10 11 10 10 9 9 9 9 8 8 9 9 9 9 8 8 8 8 8 9 10 10 10 11 12 12 12 12 12 12 12 12 12 12 12 12 12 12
8 8 8 8 9 10 10 10 10 11 11 12 11 11 10 9 9 9 8 9 9 9 9 9 8 9 8 8 8 8 9 10 10 11 11 12 12 12 12 12 12 12 12 12 12 12 12 12 12
8 8 9 10 10 10 11 12 11 12 13 12 11 12 11 10 10 10 9 10 10 9 9 9 9 9 9 9 9 9 10 10 11 11 12 12 12 13 12 12 12 13 13 13 13 13 13 13 13
8 9 10 10 11 11 12 13 13 13 14 14 13 13 13 12 11 11 10 10 11 10 10 10 10 9 10 10 11 11 11 11 11 12 12 13 13 13 13 13 13 13 13 14 14 14 14 14 14
10 10 10 11 12 12 12 14 14 14 14 15 15 14 13 13 13 12 12 11 12 12 11 11 11 11 11 11 12 12 12 12 12 12 13 13 14 14 14 13 13 14 14 15 15 15 15 15 15
10 11 11 12 13 13 14 13 13 14 14 15 15 14 15 14 14 13 13 13 13 13 13 13 13 12 13 12 12 12 13 13 13 13 14 14 14 14 14 14 14 15 15 15 15 16 16 16 15
12 11 12 13 13 13 13 14 13 14 14 14 14 14 15 15 15 14 14 14 14 14 14 14 14 14 14 14 14 14 14 14 14 14 15 15 15 14 15 15 15 16 16 16 16 16 16 16 16
12 12 12 13 13 14 14 15 14 14 14 14 15 16 16 16 15 15 15 15 14 14 15 15 15 14 15 15 15 15 15 15 15 15 15 15 15 15 15 16 16 16 17 16 17 17 17 17 17
12 12 12 13 14 14 13 15 14 15 15 14 14 16 17 17 16 15 16 16 16 15 15 15 15 15 15 15 15 15 15 15 15 16 16 16 17 16 16 17 17 17 17 17 17 17 17 17 17
13 13 13 13 13 14 14 16 16 17 15 15 16 16 17 18 17 17 17 17 17 16 16 16 17 16 16 16 16 16 16 17 17 17 17 18 18 17 17 18 18 18 18 18 17 17 17 18 18
13 13 12 12 13 14 15 16 16 16 16 16 16 16 17 18 19 19 18 18 18 18 18 18 18 18 18 18 18 18 18 18 18 19 19 19 19 18 18 19 19 19 19 19 19 18 18 18 18
14 13 13 13 13 14 15 16 17 17 16 16 16 16 17 18 19 20 19 19 19 20 20 20 20 20 20 20 20 20 20 20 20 20 20 20 20 20 20 20 20 20 20 20 20 19 19 19 19
15 14 15 16 15 16 17 18 19 19 19 17 17 17 18 19 19 20 21 21 21 22 22 22 22 22 22 22 22 22 21 21 21 21 21 21 21 21 22 22 21 21 21 21 21 20 20 19 19
15 15 16 17 17 17 18 20 20 20 21 20 20 19 19 19 20 21 21 21 22 23 23 23 23 23 24 23 23 23 23 23 23 22 22 23 23 23 23 23 23 23 23 23 22 21 21 21 20
17 17 17 18 18 19 20 21 21 22 21 21 21 21 21 20 20 20 21 22 23 23 23 23 24 24 24 24 24 24 24 24 24 24 24 24 25 24 24 25 24 24 24 23 23 22 22 22 21
Wind_Direction
198 189 206 226 236 239 254 248 249 246 248 249 250 251 248 251 253 251 247 246 245 248 251 253 257 261 267 272 272 275 282 275 256 245 249 245 243 259 262 266 272 266 277 285 289 295 283 269 261
220 214 215 230 234 245 250 256 257 251 248 250 252 254 251 252 251 253 252 251 250 252 254 257 260 263 266 267 269 271 281 266 259 260 264 258 256 259 263 266 266 274 278 282 281 279 286 279 267
213 209 218 236 244 266 262 267 263 258 251 252 255 258 257 256 253 252 254 255 253 255 257 260 261 261 262 264 265 270 268 266 266 264 269 267 261 263 265 263 266 270 276 278 278 275 284 285 276
218 217 219 222 241 264 261 266 260 256 254 256 259 260 257 254 253 252 255 257 256 256 259 260 261 260 261 263 263 264 263 266 267 266 268 267 264 264 267 267 266 265 267 271 278 279 278 279 275
216 215 219 222 236 256 259 264 260 252 252 258 258 255 254 253 252 253 257 260 261 260 259 259 261 262 263 265 264 266 267 266 263 264 268 271 270 269 270 268 264 267 266 264 270 275 276 277 274
219 220 229 238 250 260 260 261 260 259 257 262 257 253 254 253 253 256 258 261 263 264 263 264 263 263 263 264 265 266 267 265 265 265 266 268 270 271 271 271 268 269 268 266 267 271 276 277 276
219 227 237 247 254 261 263 262 264 261 257 261 262 257 256 253 257 260 263 266 267 269 270 268 266 266 265 264 266 268 270 267 265 265 266 267 268 271 270 271 269 266 266 269 268 269 272 274 275
225 229 238 250 252 259 262 261 262 263 261 262 263 264 261 260 260 263 266 270 273 275 276 274 271 269 268 269 272 273 272 269 270 269 268 269 272 271 270 268 268 269 272 274 271 269 271 275 274
234 237 243 250 252 254 255 254 253 258 262 261 262 263 263 265 265 267 270 275 278 279 279 277 275 273 272 273 273 273 272 271 272 273 271 269 272 273 269 269 273 274 274 274 274 272 275 276 275
231 243 247 250 254 254 252 254 254 260 262 260 261 264 267 271 270 268 271 276 279 283 284 282 281 279 277 275 272 269 269 270 272 272 271 270 270 269 269 268 271 272 275 274 276 278 282 281 281
234 244 253 257 255 257 253 256 257 258 263 262 263 266 273 276 280 281 282 281 283 285 287 285 283 282 282 278 272 267 268 270 271 272 271 271 270 267 271 271 272 275 279 277 279 279 283 285 286
239 247 255 259 255 256 255 255 260 261 266 266 265 270 273 278 284 287 288 288 290 289 290 290 289 286 284 281 274 268 267 269 273 273 272 270 270 272 276 277 278 279 281 283 285 283 286 292 292
250 247 249 256 258 258 257 257 262 268 271 272 268 270 277 282 285 290 292 292 291 291 292 291 292 289 287 285 278 271 268 271 275 276 272 270 273 277 279 281 281 282 284 285 286 287 289 291 289
258 256 255 255 257 260 259 258 266 267 268 273 275 275 277 282 284 286 289 289 289 292 293 291 291 289 288 286 279 274 274 275 275 275 274 275 278 277 277 281 284 284 281 282 284 284 286 288 290
260 260 258 259 261 263 264 262 266 264 266 269 272 276 278 279 283 286 288 288 287 288 289 291 292 292 291 289 285 281 280 278 275 276 276 277 280 282 282 283 282 284 283 281 280 282 283 287 289
258 264 264 265 265 266 267 265 260 263 267 269 271 272 277 279 281 285 285 286 287 288 291 293 291 290 290 287 284 284 282 280 278 278 277 277 278 281 284 285 285 284 285 283 283 283 285 286 287
270 271 272 273 271 272 270 265 266 267 270 272 272 272 274 279 282 284 283 284 288 289 291 292 290 289 289 285 283 285 282 281 279 279 280 281 280 281 281 282 286 287 286 285 284 284 285 286 287
274 271 270 270 274 274 274 271 266 268 269 271 271 273 273 275 280 281 281 285 287 288 289 290 287 286 287 288 287 286 286 285 281 279 280 282 283 280 278 280 283 285 286 287 287 285 285 287 287
268 265 265 268 274 275 275 275 274 269 270 271 272 273 273 271 274 276 279 283 285 284 286 288 288 287 287 287 287 287 287 287 286 285 285 286 285 282 280 279 281 282 284 285 286 286 286 285 286
274 266 266 267 271 276 276 277 278 273 272 272 271 271 271 271 273 274 275 276 281 282 283 285 285 285 285 286 285 283 284 285 289 291 291 289 287 285 284 282 282 283 285 286 286 285 284 284 284
274 270 268 269 271 276 278 278 279 280 276 274 272 267 269 271 274 274 275 277 279 282 284 283 282 283 284 285 284 283 285 286 287 289 291 292 289 286 284 285 283 284 286 286 285 284 284 284 283
270 272 272 273 277 279 281 283 281 283 282 276 274 271 273 272 272 274 275 276 278 280 282 282 282 282 282 282 283 283 285 286 288 289 291 292 291 289 286 287 286 285 286 287 285 283 283 282 283
270 271 273 278 279 282 282 281 282 280 279 276 274 274 274 272 270 273 275 276 276 279 281 282 282 282 282 283 283 283 284 286 287 288 290 291 289 288 288 288 289 288 287 286 284 283 282 281 281
271 271 275 281 283 283 284 281 279 278 279 278 276 274 274 271 271 273 275 275 276 278 280 282 282 282 282 283 283 284 284 284 285 288 290 290 288 286 286 288 289 288 288 285 282 281 280 280 280
271 272 276 281 285 286 285 281 280 280 281 280 277 273 273 273 273 274 275 275 277 277 277 279 280 280 281 282 283 284 284 282 283 286 289 291 289 286 286 287 288 288 287 284 281 279 279 277 278
268 268 269 272 277 279 280 280 282 285 285 284 280 276 275 274 274 274 274 275 276 276 277 278 278 279 279 280 281 282 283 282 283 285 287 289 289 287 286 286 286 287 285 284 281 279 280 278 276
267 263 266 267 270 273 278 282 285 286 285 282 278 275 274 275 274 273 274 275 276 277 277 276 276 277 278 279 279 280 281 281 282 284 285 286 287 287 286 287 286 285 285 283 281 280 279 278 276
268 269 270 269 271 271 272 278 283 284 284 283 281 278 275 276 277 275 275 277 276 277 277 276 275 276 277 278 278 279 279 280 282 282 282 283 284 285 285 286 287 285 284 283 281 279 278 278 277
269 265 268 271 273 273 273 273 278 283 284 282 280 280 279 278 277 277 276 277 277 277 276 276 276 276 276 277 277 278 278 279 281 281 281 281 282 282 283 283 284 284 283 281 280 279 278 277 275
271 268 267 270 271 271 272 275 279 282 283 284 281 278 278 279 278 277 276 276 277 277 277 277 277 276 276 277 277 277 278 278 278 279 280 281 281 282 282 281 281 281 281 280 278 278 277 275 274
Height
5857 5858 5858 5859 5860 5860 5860 5860 5860 5861 5862 5862 5863 5863 5864 5865 5867 5869 5868 5868 5869 5869 5870 5870 5870 5871 5871 5871 5871 5872 5872 5872 5872 5872 5872 5872 5872 5872 5872 5872 5872 5872 5873 5873 5873 5873 5873 5873 5873
5857 5858 5859 5859 5859 5859 5860 5859 5860 5861 5861 5862 5862 5863 5864 5864 5865 5866 5866 5867 5868 5868 5869 5869 5869 5870 5870 5870 5871 5871 5871 5871 5872 5872 5872 5872 5872 5872 5872 5872 5872 5872 5873 5873 5873 5873 5873 5873 5873
5857 5857 5859 5859 5858 5858 5859 5859 5860 5860 5861 5861 5862 5862 5863 5864 5864 5865 5865 5866 5867 5867 5868 5868 5868 5869 5869 5869 5870 5870 5871 5871 5871 5871 5871 5871 5872 5872 5872 5872 5872 5872 5872 5872 5872 5872 5872 5872 5872
5856 5857 5858 5859 5858 5858 5858 5859 5859 5860 5860 5860 5861 5862 5862 5863 5863 5864 5864 5865 5865 5866 5866 5867 5867 5868 5868 5868 5869 5869 5870 5870 5870 5870 5870 5871 5871 5871 5871 5871 5871 5871 5871 5871 5871 5871 5871 5871 5871
5856 5857 5858 5857 5857 5857 5857 5858 5858 5859 5859 5860 5860 5861 5861 5862 5862 5863 5863 5864 5864 5865 5865 5865 5866 5866 5867 5867 5867 5868 5868 5869 5869 5869 5869 5870 5870 5870 5870 5870 5870 5870 5870 5870 5870 5870 5870 5870 5870
5855 5856 5857 5856 5857 5857 5857 5857 5858 5858 5859 5859 5860 5860 5860 5861 5861 5862 5862 5862 5863 5863 5864 5864 5865 5865 5865 5866 5866 5866 5867 5867 5867 5868 5868 5868 5868 5868 5868 5868 5869 5869 5868 5868 5869 5869 5868 5868 5868
5855 5855 5855 5856 5856 5856 5857 5857 5857 5858 5858 5859 5859 5860 5860 5860 5860 5861 5861 5861 5862 5862 5862 5863 5863 5863 5863 5864 5864 5865 5865 5865 5865 5866 5866 5866 5867 5867 5867 5867 5867 5867 5866 5866 5867 5867 5867 5867 5867
5854 5855 5855 5855 5855 5856 5856 5856 5857 5857 5858 5858 5859 5859 5859 5860 5860 5860 5860 5860 5860 5861 5861 5861 5861 5862 5862 5862 5862 5863 5863 5863 5863 5864 5864 5865 5865 5865 5865 5865 5865 5865 5865 5865 5865 5865 5865 5865 5865
5853 5855 5854 5854 5855 5855 5855 5856 5856 5856 5857 5857 5858 5858 5859 5859 5859 5859 5859 5859 5859 5859 5860 5860 5860 5860 5859 5860 5860 5860 5861 5861 5861 5862 5862 5863 5863 5863 5863 5863 5863 5863 5863 5863 5863 5864 5864 5864 5864
5853 5854 5854 5854 5854 5854 5855 5855 5856 5856 5856 5856 5857 5857 5858 5858 5858 5858 5858 5858 5858 5858 5858 5858 5858 5857 5857 5857 5857 5858 5859 5859 5860 5860 5860 5861 5861 5862 5862 5861 5861 5861 5861 5861 5862 5862 5862 5862 5862
5852 5853 5853 5853 5853 5853 5854 5854 5855 5855 5855 5856 5856 5857 5857 5857 5857 5857 5857 5857 5857 5857 5857 5856 5856 5855 5855 5854 5854 5855 5857 5857 5858 5858 5859 5859 5859 5860 5860 5860 5860 5860 5860 5860 5860 5860 5860 5860 5860
5851 5852 5852 5852 5852 5853 5853 5854 5854 5854 5855 5855 5855 5856 5856 5856 5856 5856 5856 5856 5856 5855 5855 5855 5854 5854 5853 5852 5852 5853 5855 5856 5856 5857 5857 5857 5858 5858 5858 5858 5858 5858 5858 5858 5858 5858 5858 5858 5858
5850 5850 5851 5851 5851 5852 5852 5853 5853 5853 5854 5854 5854 5855 5855 5855 5855 5855 5854 5854 5854 5854 5854 5853 5853 5852 5851 5851 5851 5852 5853 5854 5854 5855 5855 5856 5856 5856 5856 5856 5856 5856 5856 5856 5856 5856 5856 5856 5856
5849 5849 5850 5850 5850 5850 5851 5851 5852 5853 5853 5853 5853 5853 5853 5853 5853 5853 5853 5853 5853 5853 5852 5852 5851 5851 5850 5850 5850 5851 5852 5852 5853 5853 5854 5854 5854 5854 5854 5854 5854 5855 5855 5855 5855 5854 5854 5854 5854
5847 5848 5848 5849 5849 5849 5850 5850 5851 5851 5851 5852 5852 5852 5852 5852 5852 5851 5851 5851 5851 5851 5851 5850 5850 5850 5850 5849 5850 5850 5850 5851 5851 5852 5852 5852 5852 5852 5852 5852 5852 5852 5852 5852 5852 5852 5852 5852 5852
5846 5846 5847 5848 5847 5848 5849 5849 5849 5849 5849 5850 5850 5850 5850 5850 5850 5850 5850 5849 5849 5849 5849 5849 5849 5848 5848 5848 5848 5849 5849 5849 5850 5850 5850 5850 5850 5850 5850 5850 5850 5850 5850 5850 5850 5850 5850 5850 5849
5844 5844 5845 5846 5846 5846 5846 5847 5847 5847 5847 5848 5848 5848 5848 5849 5848 5848 5848 5848 5848 5847 5847 5847 5847 5847 5847 5847 5847 5847 5848 5848 5848 5848 5848 5848 5848 5848 5848 5848 5848 5848 5848 5848 5847 5847 5847 5847 5847
5842 5842 5843 5843 5844 5844 5844 5844 5845 5845 5845 5845 5846 5846 5846 5846 5846 5846 5846 5846 5846 5846 5846 5845 5845 5845 5845 5845 5845 5846 5846 5846 5846 5846 5846 5846 5846 5845 5845 5845 5845 5845 5845 5845 5845 5845 5844 5844 5844
5840 5840 5841 5841 5841 5841 5841 5841 5842 5843 5843 5843 5843 5844 5844 5844 5844 5844 5844 5844 5844 5844 5844 5844 5844 5844 5843 5843 5843 5844 5844 5844 5844 5844 5843 5843 5843 5843 5843 5843 5843 5843 5843 5843 5842 5842 5842 5841 5841
5838 5838 5838 5839 5839 5839 5839 5839 5839 5840 5840 5841 5841 5841 5841 5841 5842 5842 5842 5842 5842 5842 5842 5842 5842 5842 5841 5841 5841 5841 5841 5841 5841 5841 5841 5841 5841 5840 5840 5840 5840 5840 5840 5839 5839 5839 5839 5838 5838
5835 5836 5836 5836 5836 5836 5836 5836 5837 5837 5837 5837 5838 5838 5838 5839 5839 5839 5840 5840 5840 5839 5839 5839 5839 5839 5839 5839 5839 5839 5839 5839 5839 5839 5838 5838 5837 5837 5837 5837 5837 5836 5836 5836 5835 5835 5835 5834 5834
5832 5833 5833 5833 5833 5833 5834 5833 5834 5834 5834 5834 5834 5835 5835 5836 5836 5836 5837 5837 5837 5837 5837 5836 5836 5836 5836 5836 5836 5836 5836 5836 5836 5836 5835 5835 5834 5834 5834 5833 5833 5832 5832 5832 5831 5831 5831 5830 5830
5830 5830 5830 5830 5830 5830 5831 5830 5831 5831 5831 5832 5832 5832 5832 5833 5833 5834 5834 5834 5834 5834 5834 5833 5833 5833 5833 5833 5833 5833 5833 5833 5832 5832 5832 5831 5831 5830 5830 5829 5829 5828 5828 5827 5827 5827 5826 5826 5826
5827 5827 5827 5826 5827 5827 5828 5828 5828 5827 5828 5828 5829 5829 5829 5829 5830 5830 5830 5830 5830 5830 5830 5830 5830 5830 5830 5830 5829 5829 5829 5829 5829 5828 5828 5827 5827 5826 5826 5825 5824 5824 5823 5823 5822 5822 5822 5822 5822
5824 5824 5824 5823 5823 5824 5824 5824 5825 5824 5824 5825 5825 5825 5825 5825 5826 5826 5827 5827 5827 5827 5827 5826 5826 5826 5826 5826 5826 5826 5825 5825 5825 5824 5824 5823 5822 5822 5821 5821 5820 5819 5818 5818 5817 5817 5817 5817 5817
5820 5821 5821 5821 5821 5821 5820 5820 5821 5821 5821 5821 5821 5821 5821 5821 5821 5822 5822 5823 5823 5823 5823 5823 5822 5822 5822 5822 5822 5821 5821 5821 5820 5820 5819 5818 5818 5817 5817 5816 5815 5814 5813 5813 5812 5812 5812 5812 5812
5817 5817 5818 5818 5817 5817 5817 5817 5817 5817 5817 5817 5817 5816 5816 5817 5817 5817 5818 5818 5818 5818 5818 5818 5818 5818 5818 5818 5817 5817 5816 5816 5816 5815 5814 5814 5813 5812 5811 5811 5810 5809 5808 5808 5807 5807 5807 5807 5807
5814 5814 5814 5813 5813 5813 5814 5814 5813 5813 5813 5813 5812 5812 5812 5812 5812 5812 5813 5813 5813 5813 5813 5813 5813 5813 5813 5812 5812 5812 5811 5811 5810 5810 5809 5808 5808 5807 5806 5805 5804 5804 5803 5802 5802 5801 5801 5801 5801
5810 5811 5810 5810 5810 5810 5810 5812 5810 5809 5808 5808 5807 5807 5807 5807 5807 5807 5807 5808 5808 5807 5807 5807 5807 5807 5807 5807 5806 5806 5805 5805 5804 5804 5803 5803 5802 5801 5800 5800 5799 5798 5797 5797 5796 5796 5796 5796 5796
5805 5806 5806 5806 5805 5805 5804 5808 5805 5804 5803 5803 5802 5802 5802 5802 5802 5802 5802 5802 5802 5802 5802 5801 5801 5801 5800 5800 5800 5799 5799 5798 5798 5797 5797 5796 5795 5795 5794 5793 5793 5792 5791 5791 5791 5790 5790 5790 5790